Western Head, Nova Scotia

9:00 PM ADT on June 26, 2017 (GMT -0300)
Western Head

Weather History for CWWE - February, 2013

Change the Weather History Date:

Saturday, February 2, 2013

  Actual Average Record
Temperature  
Mean Temperature 18 °F -  
Max Temperature 25 °F - - ()
Min Temperature 12 °F - - ()
Degree Days  
Heating Degree Days 46    
Moisture  
Dew Point 9 °F    
Average Humidity 60    
Maximum Humidity 78    
Minimum Humidity 35    
Precipitation  
Precipitation 0.02 in - - ()
Sea Level Pressure  
Sea Level Pressure 30.08 in    
Wind  
Wind Speed 8 mph ()    
Max Wind Speed 14 mph    
Max Gust Speed 21 mph    
T = Trace of Precipitation, MM = Missing Value Source: Averaged Metar Reports

Daily Weather History Graph

Daily Weather History Graph

Search for Another Location

Airport or City:

Trip Planner

Search our weather history database for the weather conditions in past years. The results will help you decide how hot, cold, wet, or windy it might be!

Date:

Astronomy

Feb. 02, 2013 Rise Set
Actual Time 7:34 AM AST 5:30 PM AST
Civil Twilight 7:04 AM AST 6:01 PM AST
Nautical Twilight 6:29 AM AST 6:35 PM AST
Astronomical Twilight 5:55 AM AST 7:09 PM AST
Moon No Moon Rise 10:26 AM AST (2/2)
Length of Visible Light 10h 57m
Length of Day
9h 56m
Waning Gibbous, 60% of the Moon is Illuminated
Feb 2
Waning Gibbous
Feb 3
Last Quarter
Feb 10
New
Feb 17
First Quarter
Feb 25
Full

Hourly Weather History & Observations

Time (AST) Temp. Windchill Dew Point Humidity Pressure Visibility Wind Dir Wind Speed Gust Speed Precip Events Conditions
12:00 AM 21.0 °F 8.6 °F 10.6 °F 64% 29.82 in - NNW 12.7 mph 18.4 mph N/A   Unknown
1:00 AM 19.9 °F 10.1 °F 9.7 °F 64% 29.85 in - NNW 8.1 mph - N/A   Unknown
2:00 AM 18 °F - 8 °F 54% 29.89 in - NW 6.9 mph - -  
2:00 AM 18.3 °F 9.1 °F 8.4 °F 65% 29.89 in - NW 6.9 mph - N/A   Unknown
3:00 AM 18.9 °F 8.0 °F 9.7 °F 67% 29.93 in - NW 9.2 mph - N/A   Unknown
4:00 AM 16.5 °F 5.1 °F 6.6 °F 65% 29.96 in - NW 9.2 mph - N/A   Unknown
5:00 AM 15 °F - 7 °F 58% 29.99 in - WNW 6.9 mph - -  
5:00 AM 14.7 °F 4.8 °F 6.8 °F 71% 29.99 in - WNW 6.9 mph - N/A   Unknown
6:00 AM 14.7 °F 4.8 °F 8.2 °F 75% 30.02 in - WNW 6.9 mph - N/A   Unknown
7:00 AM 13.6 °F 0.7 °F 6.1 °F 72% 30.04 in - WNW 10.4 mph - N/A   Unknown
8:00 AM 13 °F - 5 °F 57% 30.08 in - WNW 6.9 mph - -  
8:00 AM 12.9 °F 2.6 °F 4.6 °F 70% 30.08 in - WNW 6.9 mph - N/A   Unknown
9:00 AM 16.0 °F 2.9 °F 5.5 °F 63% 30.12 in - WNW 11.5 mph - N/A   Unknown
10:00 AM 18.0 °F 4.8 °F 5.7 °F 59% 30.12 in - WNW 12.7 mph 20.7 mph N/A   Unknown
11:00 AM 19 °F - 6 °F 42% 30.14 in - WNW 13.8 mph - -  
11:00 AM 19.0 °F 5.6 °F 5.9 °F 57% 30.14 in - WNW 13.8 mph 20.7 mph N/A   Unknown
12:00 PM 22.5 °F 11.1 °F 8.2 °F 54% 30.13 in - West 11.5 mph 18.4 mph N/A   Unknown
1:00 PM 23.7 °F 14.0 °F 8.1 °F 51% 30.12 in - West 9.2 mph - N/A   Unknown
2:00 PM 25 °F - 9 °F 35% 30.12 in - WSW 13.8 mph - -  
2:00 PM 25.2 °F 13.3 °F 8.6 °F 50% 30.12 in - WSW 13.8 mph - N/A   Unknown
3:00 PM 25.2 °F 14.4 °F 6.4 °F 45% 30.13 in - West 11.5 mph 18.4 mph N/A   Unknown
4:00 PM 25.3 °F 15.3 °F 8.8 °F 50% 30.14 in - West 10.4 mph 17.3 mph N/A   Unknown
5:00 PM 23 °F - 9 °F 41% 30.16 in - West 10.4 mph - -  
5:00 PM 23.4 °F 12.8 °F 9.1 °F 55% 30.16 in - West 10.4 mph - N/A   Unknown
6:00 PM 19.8 °F 11.9 °F 8.2 °F 61% 30.17 in - West 5.8 mph - N/A   Unknown
7:00 PM 18.1 °F 10.0 °F 9.5 °F 69% 30.19 in - West 5.8 mph - N/A   Unknown
8:00 PM 18 °F - 11 °F 63% 30.19 in - WSW 3.5 mph - -  
8:00 PM 17.8 °F 12.5 °F 10.8 °F 74% 30.19 in - WSW 3.5 mph - N/A   Unknown
10:00 PM 20.7 °F - 14.9 °F 78% 30.20 in - WSW 2.3 mph - N/A   Unknown
11:00 PM 24 °F - 16 °F 59% 30.19 in - SE 4.6 mph - -  
11:00 PM 24.1 °F 18.2 °F 15.6 °F 70% 30.19 in - SE 4.6 mph - N/A   Unknown